Regional Weather Roundup
Issued by NWS

Home | Current Version | Previous Version | Text Only | Print | Product List | Glossary Off
Versions: 1 2 3 4 5 6 7 8 9 10 11 12 13 14 15 16 17 18 19 20 21 22 23 24 25 26 27 28 29 30 31 32 33 34 35 36 37 38 39 40 41 42 43 44 45 46 47 48 49 50

439
ASUS43 KDTX 200610
RWRMI
MICHIGAN HOURLY REGIONAL WEATHER ROUNDUP
NATIONAL WEATHER SERVICE DETROIT/PONTIAC MI
200 AM EDT FRI OCT 20 2017

NOTE: "FAIR" INDICATES FEW OR NO CLOUDS BELOW 12,000 FEET WITH NO
SIGNIFICANT WEATHER AND/OR OBSTRUCTION TO VISIBILITY.

MIZ047>049-052>055-059>063-066>070-074>076-081>083-200700-
SOUTHEAST LOWER MICHIGAN

CITY           SKY/WX    TMP DP  RH WIND       PRES   REMARKS
ADRIAN         FAIR      43  33  68 CALM      30.22R
6HR MIN TEMP:  42; 6HR MAX TEMP:  58;

ALMA           FAIR      40  36  86 CALM      30.19S
ANN ARBOR      FAIR      36  34  92 CALM      30.20S
BAD AXE        FAIR      43  35  74 CALM      30.18R
CARO           FAIR      37  34  90 CALM      30.19R
DETROIT CITY   FAIR      52  33  48 W5        30.20S
6HR MIN TEMP:  52; 6HR MAX TEMP:  61;

DETROIT        FAIR      50  33  52 NW5       30.21R
6HR MIN TEMP:  50; 6HR MAX TEMP:  61;

FLINT          FAIR      40  35  83 CALM      30.21R
6HR MIN TEMP:  40; 6HR MAX TEMP:  56;

GROSSE ILE     FAIR      49  36  60 NW5       30.19S
6HR MIN TEMP:  49; 6HR MAX TEMP:  60;

HILLSDALE      FAIR      45  32  61 CALM      30.21S
HOWELL         FAIR      42  36  78 CALM      30.21R
6HR MIN TEMP:  42; 6HR MAX TEMP:  56;


CITY           SKY/WX    TMP DP  RH WIND       PRES   REMARKS
JACKSON        FAIR      43  36  76 S3        30.22R
6HR MIN TEMP:  42; 6HR MAX TEMP:  56;

LAMBERTVILLE   FAIR      44  37  77 CALM      30.21R
6HR MIN TEMP:  43; 6HR MAX TEMP:  59;

LANSING        FAIR      44  35  70 CALM      30.22R
6HR MIN TEMP:  44; 6HR MAX TEMP:  57;

LAPEER         FAIR      40  37  87 CALM      30.20S
6HR MIN TEMP:  40; 6HR MAX TEMP:  56;

MASON          FAIR      44  36  73 CALM      30.22R
MONROE         FAIR      45  33  63 CALM      30.20S
6HR MIN TEMP:  44; 6HR MAX TEMP:  55;

MT. CLEMENS    FAIR      51  34  53 CALM      30.17S
6HR MIN TEMP:  50; 6HR MAX TEMP:  60;

PONTIAC        FAIR      49  34  56 W3        30.20R
6HR MIN TEMP:  47; 6HR MAX TEMP:  57;

PORT HOPE        N/A     53  37  54 SW7       30.15R
6HR MIN TEMP:  51; 6HR MAX TEMP:  57;

PORT HURON     FAIR      43  36  75 CALM      30.19R
TRI CITIES     FAIR      48  36  63 SW7       30.19R
6HR MIN TEMP:  46; 6HR MAX TEMP:  55;

MIDLAND        FAIR      38  34  84 CALM      30.17S
6HR MIN TEMP:  38; 6HR MAX TEMP:  56;

TROY           FAIR      53  32  45 W6        30.21S
SAGINAW HB     FAIR      43  34  70 S5        30.18S
$$
MIZ043>046-050>051-056>058-064>065-071>073-077>080-200700-
SOUTHWEST LOWER MICHIGAN

CITY           SKY/WX    TMP DP  RH WIND       PRES   REMARKS
BATTLE CREEK   FAIR      44  37  76 CALM      30.21S
6HR MIN TEMP:  41; 6HR MAX TEMP:  53;

BENTON HARBOR  FAIR      43  38  82 CALM      30.18S
6HR MIN TEMP:  41; 6HR MAX TEMP:  49;

BIG RAPIDS     FAIR      40  35  83 CALM      30.17S
6HR MIN TEMP:  40; 6HR MAX TEMP:  50;

COLDWATER      FAIR      40  38  91 CALM      30.21S
6HR MIN TEMP:  40; 6HR MAX TEMP:  50;

FREMONT        FAIR      43  41  93 CALM      30.17S
HOLLAND        FAIR      43  37  79 SE3       30.18F
6HR MIN TEMP:  43; 6HR MAX TEMP:  51;

GRAND RAPIDS   FAIR      43  38  82 SE5       30.19S
6HR MIN TEMP:  43; 6HR MAX TEMP:  54;

IONIA          FAIR      45  33  61 SW3       30.20R
6HR MIN TEMP:  45; 6HR MAX TEMP:  54;

KALAMAZOO      FAIR      41  36  82 CALM      30.20F
6HR MIN TEMP:  41; 6HR MAX TEMP:  53;

LUDINGTON      FAIR      49  43  81 S5        30.13S
6HR MIN TEMP:  43; 6HR MAX TEMP:  55;

MARSHALL       FAIR      40  38  95 CALM      30.21S
6HR MIN TEMP:  39; 6HR MAX TEMP:  51;

MOUNT PLEASANT FAIR      44  37  73 CALM      30.18R
6HR MIN TEMP:  44; 6HR MAX TEMP:  56;

MUSKEGON         N/A     46  42  86 CALM      30.17S
6HR MIN TEMP:  45; 6HR MAX TEMP:  54;

SOUTH HAVEN    FAIR      43  38  83 CALM      30.18S
$$
MIZ016>042-200700-
NORTHERN LOWER MICHIGAN

CITY           SKY/WX    TMP DP  RH WIND       PRES   REMARKS
ALPENA         FAIR      50  34  54 CALM      30.13S
6HR MIN TEMP:  50; 6HR MAX TEMP:  55;

BEAVER ISLAND  FAIR      57  50  75 SW9       30.08S
6HR MIN TEMP:  56; 6HR MAX TEMP:  58;

BELLAIRE       FAIR      39  37  90 CALM      30.13S
6HR MIN TEMP:  39; 6HR MAX TEMP:  51;

CADILLAC       FAIR      40  33  73 CALM      30.15S
CHARLEVOIX     FAIR      53  42  67 S5        30.14R
FRANKFORT      FAIR      50  47  90 CALM      30.12S
GAYLORD        FAIR      48  31  51 SW6       30.13S
6HR MIN TEMP:  46; 6HR MAX TEMP:  50;

GRAYLING       FAIR      37  33  83 CALM      30.15S
6HR MIN TEMP:  36; 6HR MAX TEMP:  49;

HARBOR SPRINGS FAIR      50  37  61 CALM      30.11S
HOUGHTON LAKE  FAIR      49  34  56 W5        30.16S
6HR MIN TEMP:  44; 6HR MAX TEMP:  54;

MANISTEE       FAIR      45  40  82 SE5       30.14S
OSCODA         FAIR      47  32  55 SW7       30.14S
6HR MIN TEMP:  45; 6HR MAX TEMP:  53;

PELLSTON       FAIR      48  38  68 SE5       30.11S
6HR MIN TEMP:  48; 6HR MAX TEMP:  56;

ROGERS CITY    FAIR      53  32  45 SW8       30.12R
TRAVERSE CITY  FAIR      53  39  59 VRB3      30.12S
6HR MIN TEMP:  49; 6HR MAX TEMP:  56;

$$
MIZ007>008-015-200700-
EASTERN UPPER MICHIGAN

CITY           SKY/WX    TMP DP  RH WIND       PRES   REMARKS
KINROSS        FAIR      51  47  86 SW6       30.09R
6HR MIN TEMP:  48; 6HR MAX TEMP:  52;

MACKINAC ISLAN FAIR      56  42  59 S9        30.09S
6HR MIN TEMP:  56; 6HR MAX TEMP:  59;

NEWBERRY       FAIR      49  49  97 S9        30.06S
6HR MIN TEMP:  45; 6HR MAX TEMP:  50;

S. S. MARIE    FAIR      44  33  65 CALM      30.08S
6HR MIN TEMP:  43; 6HR MAX TEMP:  55;

MUNISING         N/A     56  38  50 S10G18    30.01F
6HR MIN TEMP:  47; 6HR MAX TEMP:  56;

$$
MIZ004>006-011>014-085-200700-
CENTRAL UPPER MICHIGAN

CITY           SKY/WX    TMP DP  RH WIND       PRES   REMARKS
MANISTIQUE     FAIR      53  47  81 S9        30.06S
6HR MIN TEMP:  52; 6HR MAX TEMP:  54;

ESCANABA       FAIR      53  39  59 SW7       30.05S
6HR MIN TEMP:  51; 6HR MAX TEMP:  56;

MENOMINEE      FAIR      52  42  69 S3        30.07S
6HR MIN TEMP:  52; 6HR MAX TEMP:  58;

SAWYER-GWINN   FAIR      46  33  59 S7        30.03S
6HR MIN TEMP:  45; 6HR MAX TEMP:  54;

$$
MIZ001>003-009>011-084-200700-
WESTERN UPPER MICHIGAN

CITY           SKY/WX    TMP DP  RH WIND       PRES   REMARKS
IRON MOUNTAIN  FAIR      46  32  58 SE5       30.03S
6HR MIN TEMP:  45; 6HR MAX TEMP:  55;

HOUGHTON       FAIR      53  31  42 SW6       29.96S
6HR MIN TEMP:  46; 6HR MAX TEMP:  55;

COPPER HARBOR    N/A     55  36  48 SW10      29.94S
6HR MIN TEMP:  51; 6HR MAX TEMP:  56;

IRONWOOD       FAIR      57  35  43 S10G20    29.96S
6HR MIN TEMP:  57; 6HR MAX TEMP:  62;

$$

ABBREVIATIONS USED IN REMARKS
   TC - TEMPERATURE IN CELSIUS
  WCI - WIND CHILL INDEX
   HX - HEAT INDEX
  VSB - VISIBILITY





USA.gov is the U.S. government's official web portal to all federal, state and local government web resources and services.